Content
SEND FEEDBACK

Daily
Averages
Monthly
Summary
United States of America

ANN ARBOR, MICHIGAN


Home > North America > United States > Michigan
Elevation: 759 feet     Latitude: 42 17N     Longitude: 083 43W

WEATHER
 
SELECT A DAY
Number of Records: 207,248;   Date Range: 1/1/95 - 10/29/14
 
SHARE

PRINT THIS DATA

[ ← Previous Day ]
WEATHER ALMANAC - JULY 21, 2013
[ Next Day → ]
[ °C ]   °F
Weather ElementAverageHighLow
Temperature72.8 °F82 °F (2:53 pm)64 °F (5:53 am)
Dewpoint61.1 °F66 °F (9:53 pm)54 °F (8:53 am)
Humidity68 %93 % (1:53 am)50 % (1:53 pm)
Barometer29.96 in30.01 in (11:53 am)29.92 in (1:53 am)
Wind Speed3.2 mph6.9 mph (2:53 am)
Weather ElementAverage
Visibility9.8 mi
Wind DirectionENE (53.5 °)

Weather ElementTotal
Precipitation---
Cooling Degree Days8 (Base 65)
Growing Degree Days23 (Base 50)
Averaged from 23 records on July 21, 2013
WEATHER CONDITIONS BREAKOUT
WIND DIRECTION BREAKOUT
WEATHER BY HOUR - JULY 21, 2013
[ °C ]   °F
Local TimeTemperatureDewpointHumidityBarometerVisibilityWind DirectionWind SpeedGust SpeedPrecipitationEventsConditions
1:53 AM64.9 °F63.0 °F93 %29.92 in10.0 miCalmScattered Clouds
2:53 AM68.0 °F64.0 °F87 %29.93 in10.0 miNE (40°)6.9 mphClear
3:53 AM66.0 °F61.0 °F84 %29.94 in10.0 miENE (60°)3.5 mphClear
4:53 AM64.9 °F57.9 °F78 %29.94 in10.0 miNE (50°)4.6 mphClear
5:53 AM64.0 °F57.0 °F78 %29.95 in10.0 miNE (50°)4.6 mphClear
6:53 AM64.0 °F57.0 °F78 %29.97 in10.0 miNE (40°)4.6 mphClear
7:53 AM64.9 °F55.0 °F70 %29.99 in10.0 miNE (50°)5.8 mphClear
8:53 AM68.0 °F54.0 °F61 %29.99 in10.0 miENE (60°)5.8 mphClear
9:53 AM72.0 °F57.0 °F59 %29.99 in10.0 miENE (70°)5.8 mphClear
10:53 AM73.9 °F59.0 °F59 %30.00 in10.0 miENE (60°)4.6 mphClear
11:53 AM75.0 °F60.1 °F60 %30.01 in10.0 miCalmClear
12:53 PM78.1 °F62.1 °F58 %30.00 in10.0 miCalmClear
1:53 PM80.1 °F60.1 °F50 %29.98 in10.0 miVariable3.5 mphClear
2:53 PM82.0 °F62.1 °F51 %29.97 in10.0 miCalmPartly Cloudy
3:53 PM81.0 °F61.0 °F50 %29.96 in10.0 miCalmMostly Cloudy
4:53 PM82.0 °F62.1 °F51 %29.95 in10.0 miSSE (160°)3.5 mphMostly Cloudy
5:53 PM82.0 °F63.0 °F52 %29.92 in10.0 miCalmClear
6:53 PM79.0 °F63.0 °F58 %29.92 in10.0 miEast (100°)4.6 mphScattered Clouds
7:53 PM77.0 °F64.0 °F64 %29.92 in10.0 miSE (130°)3.5 mphClear
8:53 PM73.0 °F64.9 °F76 %29.93 in10.0 miCalmClear
9:53 PM72.0 °F66.0 °F81 %29.94 in6.0 miSE (130°)3.5 mphHaze
10:53 PM72.0 °F66.0 °F81 %29.95 in10.0 miESE (120°)4.6 mphClear
11:53 PM71.1 °F66.0 °F84 %29.96 in10.0 miESE (110°)3.5 mphClear
Hourly data recorded from KARB, located miles away from Ann Arbor, Michigan







STORIES FROM OUR PARTNERS